Location: Bittelbronn
(48.4454°N, 8.5870°E)
Time: 17:37:16
(UTC+00:00)

Cosmos 2181 Rocket - Pass Details

Date: 23 May 2024
Orbit: 951 x 1014 km, 82.9° (Epoch: 16 June)

Event Time Altitude Azimuth Distance (km) Brightness Sun altitude
Rises 01:48:41 0° 350° (N) 3,745 7.8 -13.6°
Reaches altitude 10° 01:51:15 10° 352° (N) 2,784 7.1 -13.3°
Maximum altitude 01:57:40 85° 81° (E) 1,000 4.1 -12.7°
Drops below altitude 10° 02:03:56 10° 171° (S) 2,721 5.9 -12.1°
Enters shadow 02:05:56 - 172° (S) 3,476 6.5 -11.9°
